Year,Month,Day,Hour,Minute,Value (Times are PST for windspeed in km/hr)
2010,06,02,00,00,14.90
2010,06,02,00,01,16.70
2010,06,02,00,02,19.20
2010,06,02,00,03,16.40
2010,06,02,00,04,22.10
2010,06,02,00,05,18.10
2010,06,02,00,06,16.10
2010,06,02,00,07,17.30
2010,06,02,00,08,12.40
2010,06,02,00,09,16.80
2010,06,02,00,10,15.30
2010,06,02,00,11,17.10
2010,06,02,00,12,14.70
2010,06,02,00,13,18.90
2010,06,02,00,14,15.90
2010,06,02,00,15,13.90
2010,06,02,00,16,17.60
2010,06,02,00,17,23.90
2010,06,02,00,18,13.60
2010,06,02,00,19,17.10
2010,06,02,00,20,16.00
2010,06,02,00,21,17.20
2010,06,02,00,22,15.90
2010,06,02,00,23,17.80
2010,06,02,00,24,13.60
2010,06,02,00,25,17.20
2010,06,02,00,26,16.50
2010,06,02,00,27,17.00
2010,06,02,00,28,10.60
2010,06,02,00,29,13.70
2010,06,02,00,30,15.90
2010,06,02,00,31,14.00
2010,06,02,00,32,17.30
2010,06,02,00,33,17.60
2010,06,02,00,34,18.30
2010,06,02,00,35,15.70
2010,06,02,00,36,14.50
2010,06,02,00,37,15.90
2010,06,02,00,38,14.00
2010,06,02,00,39,11.10
2010,06,02,00,40,16.70
2010,06,02,00,41,12.70
2010,06,02,00,42,17.10
2010,06,02,00,43,12.20
2010,06,02,00,44,13.80
2010,06,02,00,45,14.20
2010,06,02,00,46,12.40
2010,06,02,00,47,14.00
2010,06,02,00,48,14.10
2010,06,02,00,49,10.10
2010,06,02,00,50,16.10
2010,06,02,00,51,11.80
2010,06,02,00,52,11.10
2010,06,02,00,53,10.70
2010,06,02,00,54,14.10
2010,06,02,00,55,8.70
2010,06,02,00,56,10.60
2010,06,02,00,57,13.00
2010,06,02,00,58,13.30
2010,06,02,00,59,8.80
2010,06,02,01,00,9.00
2010,06,02,01,01,16.20
2010,06,02,01,02,12.50
2010,06,02,01,03,9.90
2010,06,02,01,04,12.30
2010,06,02,01,05,12.10
2010,06,02,01,06,18.50
2010,06,02,01,07,11.90
2010,06,02,01,08,8.30
2010,06,02,01,09,6.50
2010,06,02,01,10,8.90
2010,06,02,01,11,12.50
2010,06,02,01,12,16.00
2010,06,02,01,13,9.90
2010,06,02,01,14,10.10
2010,06,02,01,15,9.70
2010,06,02,01,16,14.10
2010,06,02,01,17,12.00
2010,06,02,01,18,12.30
2010,06,02,01,19,14.70
2010,06,02,01,20,16.40
2010,06,02,01,21,15.00
2010,06,02,01,22,14.60
2010,06,02,01,23,21.70
2010,06,02,01,24,16.60
2010,06,02,01,25,15.90
2010,06,02,01,26,10.70
2010,06,02,01,27,9.90
2010,06,02,01,28,15.80
2010,06,02,01,29,12.40
2010,06,02,01,30,10.00
2010,06,02,01,31,12.70
2010,06,02,01,32,9.00
2010,06,02,01,33,8.80
2010,06,02,01,34,10.60
2010,06,02,01,35,13.00
2010,06,02,01,36,9.90
2010,06,02,01,37,7.50
2010,06,02,01,38,8.90
2010,06,02,01,39,7.80
2010,06,02,01,40,10.90
2010,06,02,01,41,9.50
2010,06,02,01,42,11.80
2010,06,02,01,43,8.70
2010,06,02,01,44,9.10
2010,06,02,01,45,9.70
2010,06,02,01,46,8.20
2010,06,02,01,47,9.90
2010,06,02,01,48,9.70
2010,06,02,01,49,8.00
2010,06,02,01,50,15.60
2010,06,02,01,51,15.60
2010,06,02,01,52,13.60
2010,06,02,01,53,7.30
2010,06,02,01,54,13.20
2010,06,02,01,55,14.50
2010,06,02,01,56,10.40
2010,06,02,01,57,12.20
2010,06,02,01,58,6.20
2010,06,02,01,59,10.00
2010,06,02,02,00,9.70
2010,06,02,02,01,13.60
2010,06,02,02,02,11.50
2010,06,02,02,03,12.90
2010,06,02,02,04,12.40
2010,06,02,02,05,12.10
2010,06,02,02,06,14.90
2010,06,02,02,07,17.10
2010,06,02,02,08,17.70
2010,06,02,02,09,14.70
2010,06,02,02,10,13.60
2010,06,02,02,11,15.70
2010,06,02,02,12,10.50
2010,06,02,02,13,13.60
2010,06,02,02,14,14.00
2010,06,02,02,15,10.90
2010,06,02,02,16,11.60
2010,06,02,02,17,9.20
2010,06,02,02,18,12.50
2010,06,02,02,19,12.80
2010,06,02,02,20,16.80
2010,06,02,02,21,17.10
2010,06,02,02,22,15.10
2010,06,02,02,23,17.20
2010,06,02,02,24,11.90
2010,06,02,02,25,14.30
2010,06,02,02,26,15.50
2010,06,02,02,27,11.30
2010,06,02,02,28,11.10
2010,06,02,02,29,12.50
2010,06,02,02,30,11.10
2010,06,02,02,31,13.40
2010,06,02,02,32,9.90
2010,06,02,02,33,15.50
2010,06,02,02,34,15.00
2010,06,02,02,35,12.90
2010,06,02,02,36,14.50
2010,06,02,02,37,9.30
2010,06,02,02,38,10.10
2010,06,02,02,39,10.70
2010,06,02,02,40,10.00
2010,06,02,02,41,9.60
2010,06,02,02,42,11.00
2010,06,02,02,43,9.50
2010,06,02,02,44,9.00
2010,06,02,02,45,9.40
2010,06,02,02,46,9.70
2010,06,02,02,47,9.20
2010,06,02,02,48,8.10
2010,06,02,02,49,7.10
2010,06,02,02,50,8.20
2010,06,02,02,51,7.70
2010,06,02,02,52,7.70
2010,06,02,02,53,10.00
2010,06,02,02,54,7.50
2010,06,02,02,55,7.40
2010,06,02,02,56,10.00
2010,06,02,02,57,8.10
2010,06,02,02,58,7.90
2010,06,02,02,59,6.40
2010,06,02,03,00,6.30
2010,06,02,03,01,6.80
2010,06,02,03,02,8.00
2010,06,02,03,03,10.00
2010,06,02,03,04,7.20
2010,06,02,03,05,9.00
2010,06,02,03,06,6.60
2010,06,02,03,07,7.10
2010,06,02,03,08,8.10
2010,06,02,03,09,7.00
2010,06,02,03,10,7.00
2010,06,02,03,11,6.40
2010,06,02,03,12,8.50
2010,06,02,03,13,6.50
2010,06,02,03,14,7.40
2010,06,02,03,15,6.80
2010,06,02,03,16,6.80
2010,06,02,03,17,6.40
2010,06,02,03,18,10.30
2010,06,02,03,19,7.80
2010,06,02,03,20,3.40
2010,06,02,03,21,3.80
2010,06,02,03,22,1.20
2010,06,02,03,23,0.70
2010,06,02,03,24,3.10
2010,06,02,03,25,3.10
2010,06,02,03,26,0.70
2010,06,02,03,27,0.10
2010,06,02,03,28,1.90
2010,06,02,03,29,3.40
2010,06,02,03,30,4.70
2010,06,02,03,31,5.60
2010,06,02,03,32,4.80
2010,06,02,03,33,3.60
2010,06,02,03,34,5.30
2010,06,02,03,35,5.30
2010,06,02,03,36,4.40
2010,06,02,03,37,5.80
2010,06,02,03,38,5.70
2010,06,02,03,39,7.60
2010,06,02,03,40,7.10
2010,06,02,03,41,3.40
2010,06,02,03,42,5.00
2010,06,02,03,43,2.00
2010,06,02,03,44,3.70
2010,06,02,03,45,4.50
2010,06,02,03,46,6.80
2010,06,02,03,47,6.40
2010,06,02,03,48,3.10
2010,06,02,03,49,6.10
2010,06,02,03,50,5.90
2010,06,02,03,51,7.00
2010,06,02,03,52,10.70
2010,06,02,03,53,9.40
2010,06,02,03,54,11.40
2010,06,02,03,55,11.70
2010,06,02,03,56,8.10
2010,06,02,03,57,9.30
2010,06,02,03,58,11.30
2010,06,02,03,59,14.60
2010,06,02,04,00,13.00
2010,06,02,04,01,14.30
2010,06,02,04,02,12.70
2010,06,02,04,03,12.20
2010,06,02,04,04,11.50
2010,06,02,04,05,12.70
2010,06,02,04,06,14.70
2010,06,02,04,07,13.40
2010,06,02,04,08,9.10
2010,06,02,04,09,9.80
2010,06,02,04,10,10.80
2010,06,02,04,11,8.50
2010,06,02,04,12,7.80
2010,06,02,04,13,8.40
2010,06,02,04,14,6.60
2010,06,02,04,15,10.50
2010,06,02,04,16,10.80
2010,06,02,04,17,12.90
2010,06,02,04,18,11.20
2010,06,02,04,19,9.30
2010,06,02,04,20,11.40
2010,06,02,04,21,10.80
2010,06,02,04,22,7.10
2010,06,02,04,23,7.10
2010,06,02,04,24,7.30
2010,06,02,04,25,9.00
2010,06,02,04,26,9.90
2010,06,02,04,27,10.50
2010,06,02,04,28,7.90
2010,06,02,04,29,7.40
2010,06,02,04,30,6.10
2010,06,02,04,31,7.20
2010,06,02,04,32,8.50
2010,06,02,04,33,9.10
2010,06,02,04,34,10.60
2010,06,02,04,35,8.60
2010,06,02,04,36,7.10
2010,06,02,04,37,9.10
2010,06,02,04,38,9.10
2010,06,02,04,39,8.70
2010,06,02,04,40,7.80
2010,06,02,04,41,10.00
2010,06,02,04,42,6.40
2010,06,02,04,43,5.80
2010,06,02,04,44,6.10
2010,06,02,04,45,5.20
2010,06,02,04,46,5.50
2010,06,02,04,47,5.60
2010,06,02,04,48,6.50
2010,06,02,04,49,6.90
2010,06,02,04,50,9.80
2010,06,02,04,51,8.00
2010,06,02,04,52,7.80
2010,06,02,04,53,7.60
2010,06,02,04,54,9.30
2010,06,02,04,55,7.20
2010,06,02,04,56,5.60
2010,06,02,04,57,12.40
2010,06,02,04,58,7.10
2010,06,02,04,59,5.70
2010,06,02,05,00,8.00
2010,06,02,05,01,4.50
2010,06,02,05,02,4.50
2010,06,02,05,03,7.80
2010,06,02,05,04,8.10
2010,06,02,05,05,5.30
2010,06,02,05,06,5.60
2010,06,02,05,07,4.20
2010,06,02,05,08,5.60
2010,06,02,05,09,9.20
2010,06,02,05,10,7.60
2010,06,02,05,11,8.10
2010,06,02,05,12,9.70
2010,06,02,05,13,8.10
2010,06,02,05,14,9.30
2010,06,02,05,15,9.30
2010,06,02,05,16,8.30
2010,06,02,05,17,10.00
2010,06,02,05,18,12.70
2010,06,02,05,19,10.00
2010,06,02,05,20,12.30
2010,06,02,05,21,10.50
2010,06,02,05,22,10.20
2010,06,02,05,23,13.60
2010,06,02,05,24,11.30
2010,06,02,05,25,13.50
2010,06,02,05,26,12.50
2010,06,02,05,27,11.80
2010,06,02,05,28,9.90
2010,06,02,05,29,18.90
2010,06,02,05,30,14.50
2010,06,02,05,31,12.10
2010,06,02,05,32,16.50
2010,06,02,05,33,12.80
2010,06,02,05,34,13.30
2010,06,02,05,35,9.70
2010,06,02,05,36,17.90
2010,06,02,05,37,13.80
2010,06,02,05,38,12.90
2010,06,02,05,39,12.30
2010,06,02,05,40,14.30
2010,06,02,05,41,12.70
2010,06,02,05,42,15.80
2010,06,02,05,43,16.20
2010,06,02,05,44,13.60
2010,06,02,05,45,11.00
2010,06,02,05,46,13.60
2010,06,02,05,47,7.60
2010,06,02,05,48,9.40
2010,06,02,05,49,12.30
2010,06,02,05,50,10.30
2010,06,02,05,51,13.10
2010,06,02,05,52,13.10
2010,06,02,05,53,13.20
2010,06,02,05,54,9.40
2010,06,02,05,55,12.60
2010,06,02,05,56,14.30
2010,06,02,05,57,13.70
2010,06,02,05,58,17.10
2010,06,02,05,59,14.50
2010,06,02,06,00,12.90
2010,06,02,06,01,12.70
2010,06,02,06,02,13.80
2010,06,02,06,03,13.30
2010,06,02,06,04,12.70
2010,06,02,06,05,16.00
2010,06,02,06,06,11.10
2010,06,02,06,07,11.90
2010,06,02,06,08,15.30
2010,06,02,06,09,11.20
2010,06,02,06,10,17.10
2010,06,02,06,11,9.70
2010,06,02,06,12,13.20
2010,06,02,06,13,11.20
2010,06,02,06,14,10.40
2010,06,02,06,15,10.70
2010,06,02,06,16,15.20
2010,06,02,06,17,15.40
2010,06,02,06,18,14.80
2010,06,02,06,19,16.10
2010,06,02,06,20,19.90
2010,06,02,06,21,17.30
2010,06,02,06,22,11.10
2010,06,02,06,23,13.10
2010,06,02,06,24,10.40
2010,06,02,06,25,19.00
2010,06,02,06,26,16.30
2010,06,02,06,27,14.20
2010,06,02,06,28,12.90
2010,06,02,06,29,18.00
2010,06,02,06,30,12.50
2010,06,02,06,31,15.10
2010,06,02,06,32,16.20
2010,06,02,06,33,14.60
2010,06,02,06,34,11.60
2010,06,02,06,35,16.40
2010,06,02,06,36,11.20
2010,06,02,06,37,13.10
2010,06,02,06,38,14.50
2010,06,02,06,39,13.60
2010,06,02,06,40,9.20
2010,06,02,06,41,11.50
2010,06,02,06,42,9.10
2010,06,02,06,43,13.40
2010,06,02,06,44,11.10
2010,06,02,06,45,13.10
2010,06,02,06,46,13.80
2010,06,02,06,47,12.50
2010,06,02,06,48,17.20
2010,06,02,06,49,7.90
2010,06,02,06,50,14.40
2010,06,02,06,51,16.00
2010,06,02,06,52,13.70
2010,06,02,06,53,16.20
2010,06,02,06,54,17.40
2010,06,02,06,55,13.20
2010,06,02,06,56,11.30
2010,06,02,06,57,13.10
2010,06,02,06,58,15.50
2010,06,02,06,59,8.60
2010,06,02,07,00,11.90
2010,06,02,07,01,13.90
2010,06,02,07,02,15.90
2010,06,02,07,03,12.20
2010,06,02,07,04,12.60
2010,06,02,07,05,8.70
2010,06,02,07,06,9.40
2010,06,02,07,07,12.30
2010,06,02,07,08,12.20
2010,06,02,07,09,17.60
2010,06,02,07,10,10.20
2010,06,02,07,11,9.30
2010,06,02,07,12,13.10
2010,06,02,07,13,17.50
2010,06,02,07,14,12.80
2010,06,02,07,15,14.30
2010,06,02,07,16,11.10
2010,06,02,07,17,14.40
2010,06,02,07,18,15.20
2010,06,02,07,19,14.90
2010,06,02,07,20,8.10
2010,06,02,07,21,15.40
2010,06,02,07,22,12.50
2010,06,02,07,23,9.30
2010,06,02,07,24,13.10
2010,06,02,07,25,10.80
2010,06,02,07,26,12.60
2010,06,02,07,27,10.20
2010,06,02,07,28,10.70
2010,06,02,07,29,15.40
2010,06,02,07,30,11.80
2010,06,02,07,31,12.50
2010,06,02,07,32,13.00
2010,06,02,07,33,8.90
2010,06,02,07,34,12.50
2010,06,02,07,35,14.50
2010,06,02,07,36,10.10
2010,06,02,07,37,14.90
2010,06,02,07,38,10.80
2010,06,02,07,39,14.30
2010,06,02,07,40,11.30
2010,06,02,07,41,8.40
2010,06,02,07,42,11.50
2010,06,02,07,43,8.30
2010,06,02,07,44,8.80
2010,06,02,07,45,8.90
2010,06,02,07,46,12.30
2010,06,02,07,47,11.00
2010,06,02,07,48,10.70
2010,06,02,07,49,5.20
2010,06,02,07,50,10.40
2010,06,02,07,51,7.00
2010,06,02,07,52,7.80
2010,06,02,07,53,6.80
2010,06,02,07,54,8.30
2010,06,02,07,55,8.10
2010,06,02,07,56,7.70
2010,06,02,07,57,7.10
2010,06,02,07,58,8.50
2010,06,02,07,59,7.90
2010,06,02,08,00,6.40
2010,06,02,08,01,8.30
2010,06,02,08,02,12.40
2010,06,02,08,03,9.90
2010,06,02,08,04,6.70
2010,06,02,08,05,7.00
2010,06,02,08,06,12.00
2010,06,02,08,07,13.30
2010,06,02,08,08,11.80
2010,06,02,08,09,7.20
2010,06,02,08,10,10.30
2010,06,02,08,11,10.00
2010,06,02,08,12,14.10
2010,06,02,08,13,7.80
2010,06,02,08,14,8.20
2010,06,02,08,15,10.10
2010,06,02,08,16,8.00
2010,06,02,08,17,11.30
2010,06,02,08,18,9.50
2010,06,02,08,19,7.00
2010,06,02,08,20,13.50
2010,06,02,08,21,12.70
2010,06,02,08,22,8.60
2010,06,02,08,23,7.40
2010,06,02,08,24,6.40
2010,06,02,08,25,7.50
2010,06,02,08,26,9.30
2010,06,02,08,27,7.30
2010,06,02,08,28,6.30
2010,06,02,08,29,12.10
2010,06,02,08,30,11.00
2010,06,02,08,31,10.00
2010,06,02,08,32,8.20
2010,06,02,08,33,8.00
2010,06,02,08,34,7.20
2010,06,02,08,35,7.30
2010,06,02,08,36,6.40
2010,06,02,08,37,7.80
2010,06,02,08,38,9.20
2010,06,02,08,39,6.60
2010,06,02,08,40,7.30
2010,06,02,08,41,10.50
2010,06,02,08,42,7.50
2010,06,02,08,43,8.60
2010,06,02,08,44,10.40
2010,06,02,08,45,9.70
2010,06,02,08,46,11.30
2010,06,02,08,47,9.10
2010,06,02,08,48,13.70
2010,06,02,08,49,13.60
2010,06,02,08,50,5.30
2010,06,02,08,51,10.40
2010,06,02,08,52,8.50
2010,06,02,08,53,8.00
2010,06,02,08,54,7.10
2010,06,02,08,55,10.30
2010,06,02,08,56,8.50
2010,06,02,08,57,10.40
2010,06,02,08,58,7.80
2010,06,02,08,59,6.90
2010,06,02,09,00,5.50
2010,06,02,09,01,12.00
2010,06,02,09,02,10.10
2010,06,02,09,03,7.50
2010,06,02,09,04,5.80
2010,06,02,09,05,8.00
2010,06,02,09,06,9.70
2010,06,02,09,07,8.90
2010,06,02,09,08,8.00
2010,06,02,09,09,7.10
2010,06,02,09,10,5.40
2010,06,02,09,11,6.40
2010,06,02,09,12,6.00
2010,06,02,09,13,6.30
2010,06,02,09,14,9.90
2010,06,02,09,15,12.20
2010,06,02,09,16,8.70
2010,06,02,09,17,7.40
2010,06,02,09,18,5.20
2010,06,02,09,19,10.60
2010,06,02,09,20,12.00
2010,06,02,09,21,4.70
2010,06,02,09,22,6.30
2010,06,02,09,23,6.90
2010,06,02,09,24,4.20
2010,06,02,09,25,6.90
2010,06,02,09,26,5.00
2010,06,02,09,27,2.90
2010,06,02,09,28,2.60
2010,06,02,09,29,3.80
2010,06,02,09,30,5.90
2010,06,02,09,31,3.80
2010,06,02,09,32,5.90
2010,06,02,09,33,2.70
2010,06,02,09,34,7.40
2010,06,02,09,35,4.70
2010,06,02,09,36,4.40
2010,06,02,09,37,7.10
2010,06,02,09,38,6.30
2010,06,02,09,39,5.50
2010,06,02,09,40,6.60
2010,06,02,09,41,7.80
2010,06,02,09,42,7.00
2010,06,02,09,43,7.80
2010,06,02,09,44,6.10
2010,06,02,09,45,5.60
2010,06,02,09,46,6.70
2010,06,02,09,47,6.80
2010,06,02,09,48,4.50
2010,06,02,09,49,5.30
2010,06,02,09,50,4.10
2010,06,02,09,51,4.60
2010,06,02,09,52,2.00
2010,06,02,09,53,4.10
2010,06,02,09,54,5.40
2010,06,02,09,55,7.00
2010,06,02,09,56,4.40
2010,06,02,09,57,5.40
2010,06,02,09,58,3.80
2010,06,02,09,59,4.30
2010,06,02,10,00,7.70
2010,06,02,10,01,5.80
2010,06,02,10,02,6.00
2010,06,02,10,03,6.30
2010,06,02,10,04,4.00
2010,06,02,10,05,6.30
2010,06,02,10,06,10.00
2010,06,02,10,07,8.60
2010,06,02,10,08,3.90
2010,06,02,10,09,3.90
2010,06,02,10,10,5.30
2010,06,02,10,11,5.10
2010,06,02,10,12,3.70
2010,06,02,10,13,5.10
2010,06,02,10,14,1.40
2010,06,02,10,15,4.10
2010,06,02,10,16,2.50
2010,06,02,10,17,4.20
2010,06,02,10,18,5.80
2010,06,02,10,19,2.30
2010,06,02,10,20,3.10
2010,06,02,10,21,1.50
2010,06,02,10,22,3.30
2010,06,02,10,23,4.80
2010,06,02,10,24,3.60
2010,06,02,10,25,4.30
2010,06,02,10,26,2.40
2010,06,02,10,27,1.00
2010,06,02,10,28,0.00
2010,06,02,10,29,0.90
2010,06,02,10,30,0.50
2010,06,02,10,31,1.00
2010,06,02,10,32,0.30
2010,06,02,10,33,0.60
2010,06,02,10,34,1.80
2010,06,02,10,35,0.00
2010,06,02,10,36,0.00
2010,06,02,10,37,0.20
2010,06,02,10,38,1.80
2010,06,02,10,39,2.10
2010,06,02,10,40,2.90
2010,06,02,10,41,4.10
2010,06,02,10,42,3.40
2010,06,02,10,43,0.60
2010,06,02,10,44,2.10
2010,06,02,10,45,3.20
2010,06,02,10,46,1.20
2010,06,02,10,47,0.10
2010,06,02,10,48,0.20
2010,06,02,10,49,0.20
2010,06,02,10,50,0.00
2010,06,02,10,51,0.00
2010,06,02,10,52,0.00
2010,06,02,10,53,0.00
2010,06,02,10,54,0.10
2010,06,02,10,55,0.40
2010,06,02,10,56,0.30
2010,06,02,10,57,0.00
2010,06,02,10,58,1.80
2010,06,02,10,59,3.30
2010,06,02,11,00,0.80
2010,06,02,11,01,1.50
2010,06,02,11,02,1.40
2010,06,02,11,03,0.20
2010,06,02,11,04,2.80
2010,06,02,11,05,3.70
2010,06,02,11,06,2.70
2010,06,02,11,07,3.00
2010,06,02,11,08,0.30
2010,06,02,11,09,0.10
2010,06,02,11,10,1.10
2010,06,02,11,11,3.10
2010,06,02,11,12,2.80
2010,06,02,11,13,1.30
2010,06,02,11,14,2.20
2010,06,02,11,15,3.60
2010,06,02,11,16,2.20
2010,06,02,11,17,0.70
2010,06,02,11,18,1.30
2010,06,02,11,19,3.20
2010,06,02,11,20,4.90
2010,06,02,11,21,8.50
2010,06,02,11,22,10.70
2010,06,02,11,23,11.30
2010,06,02,11,24,7.80
2010,06,02,11,25,7.50
2010,06,02,11,26,5.60
2010,06,02,11,27,3.10
2010,06,02,11,28,2.10
2010,06,02,11,29,0.10
2010,06,02,11,30,0.50
2010,06,02,11,31,1.50
2010,06,02,11,32,0.30
2010,06,02,11,33,0.00
2010,06,02,11,34,0.10
2010,06,02,11,35,0.10
2010,06,02,11,36,1.50
2010,06,02,11,37,3.00
2010,06,02,11,38,5.20
2010,06,02,11,39,4.80
2010,06,02,11,40,7.00
2010,06,02,11,41,8.30
2010,06,02,11,42,9.40
2010,06,02,11,43,7.20
2010,06,02,11,44,5.70
2010,06,02,11,45,4.60
2010,06,02,11,46,2.20
2010,06,02,11,47,0.10
2010,06,02,11,48,1.00
2010,06,02,11,49,0.20
2010,06,02,11,50,1.50
2010,06,02,11,51,0.30
2010,06,02,11,52,0.40
2010,06,02,11,53,2.10
2010,06,02,11,54,1.10
2010,06,02,11,55,1.90
2010,06,02,11,56,0.80
2010,06,02,11,57,0.40
2010,06,02,11,58,1.30
2010,06,02,11,59,1.20
2010,06,02,12,00,3.00
2010,06,02,12,01,2.60
2010,06,02,12,02,4.70
2010,06,02,12,03,4.20
2010,06,02,12,04,4.50
2010,06,02,12,05,3.50
2010,06,02,12,06,1.80
2010,06,02,12,07,0.40
2010,06,02,12,08,0.90
2010,06,02,12,09,0.10
2010,06,02,12,10,0.00
2010,06,02,12,11,2.20
2010,06,02,12,12,0.60
2010,06,02,12,13,0.20
2010,06,02,12,14,0.30
2010,06,02,12,15,0.50
2010,06,02,12,16,0.20
2010,06,02,12,17,1.00
2010,06,02,12,18,1.00
2010,06,02,12,19,2.20
2010,06,02,12,20,0.20
2010,06,02,12,21,0.40
2010,06,02,12,22,0.50
2010,06,02,12,23,0.00
2010,06,02,12,24,1.40
2010,06,02,12,25,2.60
2010,06,02,12,26,2.40
2010,06,02,12,27,4.30
2010,06,02,12,28,0.80
2010,06,02,12,29,1.60
2010,06,02,12,30,6.30
2010,06,02,12,31,6.20
2010,06,02,12,32,7.00
2010,06,02,12,33,3.80
2010,06,02,12,34,7.20
2010,06,02,12,35,9.50
2010,06,02,12,36,3.90
2010,06,02,12,37,3.10
2010,06,02,12,38,5.90
2010,06,02,12,39,4.90
2010,06,02,12,40,3.50
2010,06,02,12,41,7.60
2010,06,02,12,42,6.60
2010,06,02,12,43,8.70
2010,06,02,12,44,7.70
2010,06,02,12,45,8.30
2010,06,02,12,46,11.60
2010,06,02,12,47,14.10
2010,06,02,12,48,14.00
2010,06,02,12,49,14.00
2010,06,02,12,50,10.40
2010,06,02,12,51,9.80
2010,06,02,12,52,8.40
2010,06,02,12,53,14.10
2010,06,02,12,54,8.90
2010,06,02,12,55,10.50
2010,06,02,12,56,13.00
2010,06,02,12,57,18.30
2010,06,02,12,58,15.70
2010,06,02,12,59,13.70
2010,06,02,13,00,12.30
2010,06,02,13,01,6.10
2010,06,02,13,02,7.40
2010,06,02,13,03,7.90
2010,06,02,13,04,7.70
2010,06,02,13,05,11.50
2010,06,02,13,06,6.60
2010,06,02,13,07,13.80
2010,06,02,13,08,16.70
2010,06,02,13,09,15.20
2010,06,02,13,10,14.60
2010,06,02,13,11,13.50
2010,06,02,13,12,15.20
2010,06,02,13,13,13.10
2010,06,02,13,14,11.50
2010,06,02,13,15,11.30
2010,06,02,13,16,13.10
2010,06,02,13,17,7.70
2010,06,02,13,18,2.60
2010,06,02,13,19,10.90
2010,06,02,13,20,7.50
2010,06,02,13,21,8.10
2010,06,02,13,22,10.00
2010,06,02,13,23,13.00
2010,06,02,13,24,6.10
2010,06,02,13,25,8.50
2010,06,02,13,26,12.40
2010,06,02,13,27,6.10
2010,06,02,13,28,9.30
2010,06,02,13,29,10.30
2010,06,02,13,30,9.50
2010,06,02,13,31,10.50
2010,06,02,13,32,7.10
2010,06,02,13,33,9.90
2010,06,02,13,34,10.20
2010,06,02,13,35,8.80
2010,06,02,13,36,8.30
2010,06,02,13,37,8.10
2010,06,02,13,38,7.70
2010,06,02,13,39,6.60
2010,06,02,13,40,13.40
2010,06,02,13,41,14.00
2010,06,02,13,42,13.30
2010,06,02,13,43,8.50
2010,06,02,13,44,11.90
2010,06,02,13,45,5.80
2010,06,02,13,46,7.50
2010,06,02,13,47,7.60
2010,06,02,13,48,3.50
2010,06,02,13,49,9.60
2010,06,02,13,50,7.10
2010,06,02,13,51,3.90
2010,06,02,13,52,7.80
2010,06,02,13,53,5.00
2010,06,02,13,54,7.50
2010,06,02,13,55,11.00
2010,06,02,13,56,10.10
2010,06,02,13,57,15.10
2010,06,02,13,58,12.60
2010,06,02,13,59,13.60
2010,06,02,14,00,19.40
2010,06,02,14,01,20.50
2010,06,02,14,02,13.30
2010,06,02,14,03,13.70
2010,06,02,14,04,8.60
2010,06,02,14,05,12.60
2010,06,02,14,06,13.10
2010,06,02,14,07,8.90
2010,06,02,14,08,15.20
2010,06,02,14,09,17.90
2010,06,02,14,10,11.30
2010,06,02,14,11,13.20
2010,06,02,14,12,14.50
2010,06,02,14,13,13.40
2010,06,02,14,14,10.70
2010,06,02,14,15,11.90
2010,06,02,14,16,15.50
2010,06,02,14,17,20.80
2010,06,02,14,18,16.70
2010,06,02,14,19,14.60
2010,06,02,14,20,12.90
2010,06,02,14,21,18.30
2010,06,02,14,22,15.10
2010,06,02,14,23,16.80
2010,06,02,14,24,19.50
2010,06,02,14,25,15.20
2010,06,02,14,26,14.60
2010,06,02,14,27,10.40
2010,06,02,14,28,15.30
2010,06,02,14,29,18.50
2010,06,02,14,30,18.10
2010,06,02,14,31,13.70
2010,06,02,14,32,15.00
2010,06,02,14,33,16.60
2010,06,02,14,34,18.30
2010,06,02,14,35,18.30
2010,06,02,14,36,15.30
2010,06,02,14,37,13.20
2010,06,02,14,38,11.70
2010,06,02,14,39,10.80
2010,06,02,14,40,13.80
2010,06,02,14,41,13.90
2010,06,02,14,42,19.00
2010,06,02,14,43,9.70
2010,06,02,14,44,13.90
2010,06,02,14,45,13.30
2010,06,02,14,46,10.40
2010,06,02,14,47,13.70
2010,06,02,14,48,16.80
2010,06,02,14,49,11.00
2010,06,02,14,50,11.00
2010,06,02,14,51,16.30
2010,06,02,14,52,21.80
2010,06,02,14,53,17.70
2010,06,02,14,54,12.70
2010,06,02,14,55,15.10
2010,06,02,14,56,22.30
2010,06,02,14,57,25.70
2010,06,02,14,58,18.70
2010,06,02,14,59,22.60
2010,06,02,15,00,24.40
2010,06,02,15,01,20.60
2010,06,02,15,02,20.60
2010,06,02,15,03,22.00
2010,06,02,15,04,24.00
2010,06,02,15,05,17.60
2010,06,02,15,06,18.40
2010,06,02,15,07,18.70
2010,06,02,15,08,18.60
2010,06,02,15,09,17.50
2010,06,02,15,10,13.80
2010,06,02,15,11,23.80
2010,06,02,15,12,22.50
2010,06,02,15,13,20.60
2010,06,02,15,14,19.50
2010,06,02,15,15,17.90
2010,06,02,15,16,16.80
2010,06,02,15,17,23.90
2010,06,02,15,18,20.30
2010,06,02,15,19,18.40
2010,06,02,15,20,22.10
2010,06,02,15,21,24.90
2010,06,02,15,22,21.10
2010,06,02,15,23,22.40
2010,06,02,15,24,26.60
2010,06,02,15,25,19.30
2010,06,02,15,26,19.10
2010,06,02,15,27,17.20
2010,06,02,15,28,23.50
2010,06,02,15,29,21.30
2010,06,02,15,30,17.90
2010,06,02,15,31,19.60
2010,06,02,15,32,16.20
2010,06,02,15,33,21.50
2010,06,02,15,34,24.90
2010,06,02,15,35,22.90
2010,06,02,15,36,20.40
2010,06,02,15,37,22.60
2010,06,02,15,38,22.70
2010,06,02,15,39,27.30
2010,06,02,15,40,23.20
2010,06,02,15,41,21.40
2010,06,02,15,42,19.00
2010,06,02,15,43,12.20
2010,06,02,15,44,14.30
2010,06,02,15,45,22.80
2010,06,02,15,46,17.40
2010,06,02,15,47,10.60
2010,06,02,15,48,18.40
2010,06,02,15,49,19.00
2010,06,02,15,50,13.60
2010,06,02,15,51,21.50
2010,06,02,15,52,17.10
2010,06,02,15,53,26.40
2010,06,02,15,54,27.30
2010,06,02,15,55,18.70
2010,06,02,15,56,15.80
2010,06,02,15,57,25.20
2010,06,02,15,58,17.90
2010,06,02,15,59,17.00
2010,06,02,16,00,20.70
2010,06,02,16,01,20.60
2010,06,02,16,02,23.30
2010,06,02,16,03,17.30
2010,06,02,16,04,24.60
2010,06,02,16,05,25.70
2010,06,02,16,06,20.70
2010,06,02,16,07,22.90
2010,06,02,16,08,21.40
2010,06,02,16,09,21.50
2010,06,02,16,10,21.50
2010,06,02,16,11,20.50
2010,06,02,16,12,24.50
2010,06,02,16,13,19.90
2010,06,02,16,14,21.50
2010,06,02,16,15,20.80
2010,06,02,16,16,21.90
2010,06,02,16,17,22.80
2010,06,02,16,18,22.10
2010,06,02,16,19,22.00
2010,06,02,16,20,18.40
2010,06,02,16,21,23.70
2010,06,02,16,22,21.40
2010,06,02,16,23,22.70
2010,06,02,16,24,17.90
2010,06,02,16,25,21.00
2010,06,02,16,26,20.00
2010,06,02,16,27,19.00
2010,06,02,16,28,23.20
2010,06,02,16,29,14.60
2010,06,02,16,30,21.40
2010,06,02,16,31,19.60
2010,06,02,16,32,20.50
2010,06,02,16,33,19.20
2010,06,02,16,34,18.30
2010,06,02,16,35,16.00
2010,06,02,16,36,12.70
2010,06,02,16,37,11.40
2010,06,02,16,38,13.90
2010,06,02,16,39,11.60
2010,06,02,16,40,10.30
2010,06,02,16,41,14.50
2010,06,02,16,42,10.20
2010,06,02,16,43,16.30
2010,06,02,16,44,18.40
2010,06,02,16,45,25.00
2010,06,02,16,46,24.40
2010,06,02,16,47,13.10
2010,06,02,16,48,18.40
2010,06,02,16,49,19.00
2010,06,02,16,50,18.80
2010,06,02,16,51,16.20
2010,06,02,16,52,20.00
2010,06,02,16,53,15.60
2010,06,02,16,54,14.10
2010,06,02,16,55,13.90
2010,06,02,16,56,16.40
2010,06,02,16,57,22.80
2010,06,02,16,58,12.90
2010,06,02,16,59,23.00
2010,06,02,17,00,14.40
2010,06,02,17,01,22.30
2010,06,02,17,02,21.50
2010,06,02,17,03,24.20
2010,06,02,17,04,22.20
2010,06,02,17,05,21.40
2010,06,02,17,06,19.10
2010,06,02,17,07,21.40
2010,06,02,17,08,23.80
2010,06,02,17,09,18.90
2010,06,02,17,10,22.00
2010,06,02,17,11,18.30
2010,06,02,17,12,26.20
2010,06,02,17,13,22.30
2010,06,02,17,14,22.00
2010,06,02,17,15,22.10
2010,06,02,17,16,20.10
2010,06,02,17,17,19.60
2010,06,02,17,18,18.30
2010,06,02,17,19,18.00
2010,06,02,17,20,21.00
2010,06,02,17,21,25.70
2010,06,02,17,22,22.50
2010,06,02,17,23,20.10
2010,06,02,17,24,19.00
2010,06,02,17,25,23.90
2010,06,02,17,26,23.80
2010,06,02,17,27,26.20
2010,06,02,17,28,27.10
2010,06,02,17,29,27.90
2010,06,02,17,30,30.60
2010,06,02,17,31,26.70
2010,06,02,17,32,27.80
2010,06,02,17,33,22.90
2010,06,02,17,34,23.70
2010,06,02,17,35,21.50
2010,06,02,17,36,28.50
2010,06,02,17,37,30.50
2010,06,02,17,38,19.80
2010,06,02,17,39,22.30
2010,06,02,17,40,29.90